Falls City, NE

7:21 PM CST on November 23, 2017 (GMT -0600)
Brenner

Weather History for KFNB - August, 2013

Change the Weather History Date:

Thursday, August 8, 2013

  Actual Average Record
Temperature  
Mean Temperature 70 °F -  
Max Temperature 78 °F 89 °F 103 °F (1988)
Min Temperature 63 °F 64 °F 47 °F (1989)
Cooling Degree Days 5    
Growing Degree Days 20 (Base 50)    
Moisture  
Dew Point 65 °F    
Average Humidity 86    
Maximum Humidity 97    
Minimum Humidity 71    
Precipitation  
Precipitation 0.01 in - - ()
Sea Level Pressure  
Sea Level Pressure 29.98 in    
Wind  
Wind Speed 2 mph (ENE)    
Max Wind Speed 8 mph    
Max Gust Speed -    
Visibility 10 miles    
Events Rain    
Averages and records for this station are not official NWS values.
T = Trace of Precipitation, MM = Missing Value Source: NWS Daily Summary

Daily Weather History Graph

Daily Weather History Graph

Search for Another Location

Airport or City:

Trip Planner

Search our weather history database for the weather conditions in past years. The results will help you decide how hot, cold, wet, or windy it might be!

Date:

Astronomy

Aug. 08, 2013 Rise Set
Actual Time 6:27 AM CDT 8:27 PM CDT
Civil Twilight 5:57 AM CDT 8:57 PM CDT
Nautical Twilight 5:21 AM CDT 9:33 PM CDT
Astronomical Twilight 4:42 AM CDT 10:12 PM CDT
Moon 8:15 AM CDT (8/8) 9:06 PM CDT (8/8)
Length of Visible Light 14h 59m
Length of Day
14h 00m
Waxing Crescent, 3% of the Moon is Illuminated
Aug 8
Waxing Crescent
Aug 14
First Quarter
Aug 20
Full
Aug 28
Last Quarter
Sep 5
New

Hourly Weather History & Observations

Time (CDT) Temp. Dew Point Humidity Pressure Visibility Wind Dir Wind Speed Gust Speed Precip Events Conditions
12:53 AM 66.9 °F 62.1 °F 84% 29.97 in 10.0 mi Calm Calm - N/A   Clear
1:53 AM 66.0 °F 62.1 °F 87% 29.97 in 10.0 mi Calm Calm - N/A   Clear
2:53 AM 64.9 °F 62.1 °F 90% 29.95 in 10.0 mi East 4.6 mph - N/A   Overcast
3:53 AM 64.9 °F 62.1 °F 90% 29.93 in 10.0 mi ENE 5.8 mph - N/A   Clear
4:53 AM 63.0 °F 62.1 °F 97% 29.94 in 10.0 mi East 5.8 mph - N/A   Clear
5:53 AM 64.0 °F 62.1 °F 93% 29.95 in 10.0 mi East 3.5 mph - N/A   Clear
6:53 AM 64.0 °F 62.1 °F 93% 29.99 in 10.0 mi Calm Calm - N/A   Clear
7:53 AM 64.9 °F 63.0 °F 93% 29.99 in 9.0 mi Calm Calm - N/A   Clear
8:53 AM 66.9 °F 64.9 °F 93% 29.98 in 10.0 mi ESE 4.6 mph - N/A   Clear
9:53 AM 69.1 °F 66.0 °F 90% 29.96 in 10.0 mi ENE 4.6 mph - N/A   Clear
10:53 AM 70.0 °F 64.9 °F 84% 29.96 in 10.0 mi NE 8.1 mph - N/A   Clear
11:53 AM 70.0 °F 64.9 °F 84% 29.99 in 10.0 mi East 4.6 mph - N/A   Mostly Cloudy
12:53 PM 71.1 °F 64.9 °F 81% 29.99 in 10.0 mi ENE 3.5 mph - 0.00 in Rain Light Rain
1:53 PM 71.1 °F 64.9 °F 81% 29.99 in 10.0 mi SE 4.6 mph - 0.01 in   Mostly Cloudy
2:53 PM 73.0 °F 66.0 °F 79% 29.99 in 10.0 mi ENE 3.5 mph - N/A   Unknown
3:53 PM 73.9 °F 66.9 °F 79% 29.99 in 10.0 mi NE 4.6 mph - 0.00 in   Overcast
4:53 PM 77.0 °F 66.9 °F 71% 30.00 in 10.0 mi Calm Calm - N/A   Partly Cloudy
5:53 PM 77.0 °F 68.0 °F 74% 29.99 in 10.0 mi Calm Calm - N/A   Clear
6:53 PM 75.9 °F 66.9 °F 74% 29.98 in 10.0 mi Calm Calm - N/A   Clear
7:53 PM 73.9 °F 68.0 °F 82% 29.98 in 10.0 mi Calm Calm - N/A   Clear
8:53 PM 72.0 °F 66.9 °F 84% 29.98 in 10.0 mi NNE 3.5 mph - N/A   Clear
9:53 PM 70.0 °F 66.9 °F 90% 30.00 in 10.0 mi NNW 3.5 mph - N/A   Clear
10:53 PM 69.1 °F 66.9 °F 93% 30.00 in 10.0 mi Calm Calm - N/A   Clear
11:53 PM 69.1 °F 66.9 °F 93% 30.00 in 10.0 mi Calm Calm - N/A   Clear